Main page
METAR-TAF:

METAR-TAF

Airports :

Persian Gulf Airport

Asaluyeh, Iran

latitude: 27-22-46N, longitude: 52-44-15E, elevation: 8 m

Current weather observation

The report was made 41 minutes ago, at 15:00 UTC
Wind 6 kt from the West/Southwest
Temperature 31°C
Humidity 55%
Pressure 1006 hPa
Visibility: 6000 m
Few clouds at a height of 4000 ft, Cumulonimbus.
Scattered clouds at a height of 20000 ft

METAR: OIBP 201500Z 24006KT 6000 FEW040CB SCT200 31/21 Q1006 A2971

Time: 20:11 (15:41 UTC)


TAF: missing

Weather observations and forecasts of more than 4000 airports (METAR and TAF reports).

The available stations are represented by yellow and red dots on the map.

Hover mouse over dot to see the name of the station.

Then click to see weather observations and forecasts.

To change the map : click on the green buttons with a black cross to zoom in, on the green button with a dash to zoom out, or on the green arrows for adjacent maps.


METAR-TAF: